Regional Weather Roundup
Issued by NWS

Home | Current Version | Previous Version | Graphics & Text | Print | Product List | Glossary On
Versions: 1 2 3 4 5 6 7 8 9 10 11 12 13 14 15 16 17 18 19 20 21 22 23 24 25 26 27 28 29 30 31 32 33 34 35 36 37 38 39 40 41 42 43 44 45 46 47 48 49 50
000
ASUS45 KTFX 302204
RWRMT
MONTANA HOURLY WEATHER ROUNDUP
NATIONAL WEATHER SERVICE GREAT FALLS MT
404 PM MDT SAT AUG 30 2014

NOTE: "FAIR" INDICATES FEW OR NO CLOUDS BELOW 12000 FEET WITH NO
SIGNIFICANT WEATHER AND/OR OBSTRUCTIONS TO VISIBILITY.

* THESE STATIONS ARE NOT UNDER NWS QUALITY CONTROL. THEY DO NOT
   REPORT WEATHER SUCH AS PRECIPITATION OR FOG.

MTZ001>007-043-302300-
WEST OF THE DIVIDE
CITY           SKY/WX    TMP DP  RH WIND       PRES   REMARKS
KALISPELL      PTSUNNY   72  37  28 W9G20     29.78F
MISSOULA       PTSUNNY   75  37  25 W18       29.83F
BUTTE          CLOUDY    55  46  72 SE9       29.90F
MULLAN PASS    CLOUDY    54  39  57 VRB3      29.96F
* LINCOLN      N/A       71  43  37 W7G20      N/A
* LOOKOUT PASS N/A       59  40  50 NE3        N/A
* POLSON       N/A       70  38  31 W4G9       N/A
* RONAN APT    PTCLDY    73  37  27 W15G20     N/A
* SEELEY LAKE  N/A       69  40  35 W8G17      N/A
* THOMP F APT  PTSUNNY   59  48  67 S4         N/A
$$

MTZ008-052>055-302300-
SOUTHWEST MONTANA
CITY           SKY/WX    TMP DP  RH WIND       PRES   REMARKS
BOZEMAN        CLOUDY    61  52  72 S6        29.86F
DILLON         CLOUDY    55  48  77 S14       29.90F
W YELLOWSTONE  CLOUDY    50  45  83 CALM      30.00F
* THREE FORKS  CLOUDY    64  64 100 N/A        N/A
* BOULDER HILL N/A       59  45  60 NE1        N/A
* MONIDA PASS  N/A       60  46  60 S16G22     N/A
* WHITEHALL    N/A       57  51  80 W12G19     N/A
* WISE RIVER   N/A       63  42  46 W11G18     N/A
$$

MTZ009>010-012-014-046-048-049-054-302300-
EAST SLOPES AND CENTRAL MONTANA
CITY           SKY/WX    TMP DP  RH WIND       PRES   REMARKS
CUT BANK       PTCLDY    72  37  28 W20G26    29.76S
GREAT FALLS    LGT RAIN  70  46  42 S3        29.76F
HELENA         PTSUNNY   70  46  42 W14G23    29.80R
MALMSTROM AFB  LGT RAIN  64  46  52 SW14G43   29.78F
* CONRAD       SUNNY     73  39  29 SW17G25    N/A
* EAST GLACIER N/A       63  40  43 NW11G17    N/A
* MONARCH      N/A       63  36  37 W12G17     N/A
* PENDROY      N/A       69  37  31 NW16G24    N/A
* ROGERS PASS  N/A       64  39  40 S4G12      N/A
* SAINT MARY   N/A       67  44  44 SW7G16     N/A
* SWEET GRASS  N/A       68  41  38 NW4        N/A
$$

MTZ011-013-016-021-035-040-045-047-050-051-302300-
NORTH CENTRAL MONTANA
CITY           SKY/WX    TMP DP  RH WIND       PRES   REMARKS
HAVRE          CLOUDY    70  46  42 NW17G28   29.71R
LEWISTOWN      CLOUDY    70  45  41 W6        29.80F
* CHESTER      N/A       73  36  26 W9G22      N/A
* DENTON       N/A       73  39  29 W16        N/A
* GEYSER       N/A       70  38  31 W11G17     N/A
* JUDITH GAP   N/A       66  44  45 SW14       N/A
* LOMA         N/A       76  33  21 SW14G28    N/A
$$

MTZ017>020-022>027-061-062-302300-
NORTHEAST MONTANA
CITY           SKY/WX    TMP DP  RH WIND       PRES   REMARKS
GLASGOW        CLOUDY    68  57  68 S7        29.71F
GLENDIVE       CLOUDY    70  61  73 NW15G22   29.71F
JORDAN         CLOUDY    72  54  53 CALM      29.74F
SIDNEY         CLOUDY    70  64  81 NW6       29.70F
WOLF POINT     CLOUDY    64  59  84 E3        29.73F
* BEAVER HILL  N/A       72  60  66 S6         N/A
* CIRCLE       N/A       65  58  78 N3         N/A
* LINDSAY DVD  N/A       66  56  70 NW16       N/A
* NAVAJO       N/A       59  59 100 SW7        N/A
$$

MTZ028>042-056>058-302300-
SOUTHCENTRAL AND SOUTHEAST MONTANA
CITY           SKY/WX    TMP DP  RH WIND       PRES   REMARKS
BAKER          PTSUNNY   79  57  47 NW12      29.72S
BILLINGS       CLOUDY    64  54  70 SW9       29.81F
LIVINGSTON     LGT RAIN  55  48  77 VRB5      29.86F
MILES CITY     LGT RAIN  70  57  64 SE3       29.72F
* LAUREL APT   CLOUDY    64  52  65 S5         N/A
* ROUNDUP APT  CLOUDY    68  52  57 N/A        N/A
* ALZADA       N/A       83  56  40 NE7        N/A   HI  82
* HYSHAM       N/A       68  46  45 NW2        N/A
* LAME DEER    N/A       65  54  68 N7G12      N/A
* REED POINT   N/A       66  54  65 NW6        N/A
* ROSCOE HILL  N/A       57  37  47 S18G32     N/A
$$

REGIONAL REPORTS...DAKOTAS
CITY           SKY/WX    TMP DP  RH WIND       PRES   REMARKS
WILLISTON      LGT RAIN  72  61  68 S5        29.71S
DICKINSON      PTSUNNY   73  57  57 SE17G26   29.71F
BEACH          N/A       72  63  73 SE12      29.72F
CROSBY         PTCLDY    68  59  73 S6        29.72S
TIOGA          PTSUNNY   70  57  64 SE14      29.75F
WATFORD CITY   LGT RAIN  70  59  68 SE5       29.70R
BISMARCK       SUNNY     75  55  50 SE14G22   29.77F
GRAND FORKS    PTCLDY    73  52  48 E8        29.83F
FARGO          PTSUNNY   72  59  64 SE9       29.84F
BUFFALO SD     PTCLDY    82  59  46 E13       29.64F HI  82
RAPID CITY     PTCLDY    88  52  29 S17G26    29.69F
$$

REGIONAL REPORTS...WYOMING/IDAHO/WASHINGTON
CITY           SKY/WX    TMP DP  RH WIND       PRES   REMARKS
GILLETTE       PTCLDY    79  52  39 N16       29.73F
SHERIDAN       TSTM      70  52  53 NW23G35   29.81R
CODY           TSTM      57  52  83 SW6       29.93R
YELLOWSTONE LA CLOUDY    43  39  86 NW6       30.09F
SALMON         CLOUDY    63  55  75 SE5       29.86S
MULLAN PASS    CLOUDY    54  39  57 VRB3      29.96S
SAND POINT     CLOUDY    70  43  38 SW3       29.82F
SPOKANE        CLOUDY    72  39  30 SW17G26   29.85F
$$

REGIONAL REPORTS...SASKATCHEWAN
CITY           SKY/WX    TMP DP  RH WIND       PRES   REMARKS
REGINA         LGT RAIN  66  59  78 S14       29.67R

$$



USA.gov is the U.S. government's official web portal to all federal, state and local government web resources and services.